Location: *
(57.8420°S, 159.8600°W)
Time: 04:13:02
(UTC+00:00)

COSMOS 2428 - Pass Details

Date: 18 May 2021
Orbit: 844 x 859 km, 70.9° (Epoch: 23 June)

Event Time Altitude Azimuth Distance (km) Brightness Sun altitude
Rises 03:11:37 0° 354° (N) 3,421 6.4 -5.9°
Reaches altitude 10° 03:14:11 10° 1° (N) 2,490 5.5 -6.2°
Maximum altitude 03:19:28 40° 68° (ENE) 1,259 3.3 -6.9°
Drops below altitude 10° 03:24:46 10° 135° (SE) 2,507 4.6 -7.5°
Enters shadow 03:25:33 - 138° (SE) 2,783 4.8 -7.6°
